This is the latest recevied weather packets stored in our database for station/object G4KVI. If no packets are shown the sender has not sent any weather packets the latest 10 day(s).
| Time | Temp. | Humidity | Pressure | Rain* | Wind** | Luminosity | Snow |
|---|---|---|---|---|---|---|---|
| 1777667104 | 11.11° C | 80% | 1022 hPa | 0 mm | - | 0 W/m² | - |
| 1777666804 | 11.67° C | 81% | 1022.1 hPa | 0 mm | - | 0 W/m² | - |
| 1777666504 | 11.67° C | 80% | 1022.1 hPa | 0 mm | - | 0 W/m² | - |
| 1777666204 | 11.67° C | 79% | 1022 hPa | 0 mm | - | 0 W/m² | - |
| 1777665904 | 12.22° C | 79% | 1021.9 hPa | 0 mm | - | 0 W/m² | - |
| 1777665604 | 12.22° C | 78% | 1022.1 hPa | 0 mm | - | 0 W/m² | - |
| 1777665304 | 12.22° C | 78% | 1021.7 hPa | 0 mm | - | 0 W/m² | - |
| 1777665004 | 12.78° C | 78% | 1021.7 hPa | 0 mm | - | 0 W/m² | - |
| 1777664704 | 12.78° C | 78% | 1021.8 hPa | 0 mm | - | 0 W/m² | - |
| 1777664404 | 12.78° C | 79% | 1021.8 hPa | 0 mm | - | 1 W/m² | - |
| 1777664104 | 13.33° C | 80% | 1021.8 hPa | 0 mm | - | 2 W/m² | - |
| 1777663804 | 13.33° C | 80% | 1021.7 hPa | 0 mm | - | 3 W/m² | - |
| 1777663504 | 13.33° C | 80% | 1021.7 hPa | 0 mm | - | 5 W/m² | - |
| 1777663204 | 13.89° C | 80% | 1021.8 hPa | 0 mm | - | 7 W/m² | - |
| 1777662904 | 13.89° C | 80% | 1021.6 hPa | 0 mm | - | 9 W/m² | - |
| 1777662604 | 14.44° C | 79% | 1021.6 hPa | 0 mm | - | 12 W/m² | - |
| 1777662304 | 14.44° C | 79% | 1021.8 hPa | 0 mm | - | 14 W/m² | - |
| 1777662004 | 14.44° C | 78% | 1021.9 hPa | 0 mm | - | 19 W/m² | - |
| 1777661704 | 14.44° C | 79% | 1021.7 hPa | 0 mm | - | 21 W/m² | - |
| 1777661404 | 14.44° C | 79% | 1021.6 hPa | 0 mm | - | 21 W/m² | - |
| 1777661104 | 14.44° C | 79% | 1021.6 hPa | 0 mm | - | 30 W/m² | - |
| 1777660804 | 14.44° C | 78% | 1021.9 hPa | 0 mm | - | 29 W/m² | - |
| 1777660504 | 14.44° C | 78% | 1021.7 hPa | 0 mm | - | 32 W/m² | - |
| 1777660204 | 15° C | 77% | 1021.6 hPa | 0 mm | - | 48 W/m² | - |
| 1777659904 | 15.56° C | 75% | 1021.5 hPa | 0 mm | - | 59 W/m² | - |
* Rain latest hour (hover to see other rain measurements)
** Current wind speed in m/s (hover to see current wind gust speed)